This is the latest recevied weather packets stored in our database for station/object K3HW. If no packets are shown the sender has not sent any weather packets the latest 10 day(s).
| Time | Temp. | Humidity | Pressure | Rain* | Wind** | Luminosity | Snow |
|---|---|---|---|---|---|---|---|
| 1778017536 | 27.78° C | 36% | 1012.1 hPa | 0 mm | - | 222 W/m² | - |
| 1778017232 | 27.78° C | 34% | 1012.2 hPa | 0 mm | - | 185 W/m² | - |
| 1778016931 | 27.78° C | 35% | 1012.1 hPa | 0 mm | - | 234 W/m² | - |
| 1778016626 | 27.78° C | 34% | 1012.1 hPa | 0 mm | - | 186 W/m² | - |
| 1778016323 | 27.22° C | 36% | 1011.9 hPa | 0 mm | - | 245 W/m² | - |
| 1778016020 | 27.22° C | 34% | 1012.1 hPa | 0 mm | - | 81 W/m² | - |
| 1778015717 | 27.78° C | 34% | 1012.2 hPa | 0 mm | - | 62 W/m² | - |
| 1778015414 | 27.78° C | 34% | 1011.8 hPa | 0 mm | - | 203 W/m² | - |
| 1778015110 | 27.22° C | 33% | 1011.9 hPa | 0 mm | - | 314 W/m² | - |
| 1778014808 | 27.22° C | 32% | 1012.2 hPa | 0 mm | - | 203 W/m² | - |
| 1778014506 | 27.22° C | 33% | 1012.1 hPa | 0 mm | - | 72 W/m² | - |
| 1778014202 | 27.22° C | 33% | 1012.1 hPa | 0 mm | - | 234 W/m² | - |
| 1778013900 | 27.22° C | 33% | 1012.1 hPa | 0 mm | - | 202 W/m² | - |
| 1778013597 | 27.22° C | 34% | 1012 hPa | 0 mm | - | 155 W/m² | - |
| 1778013294 | 27.78° C | 35% | 1012.2 hPa | 0 mm | - | 146 W/m² | - |
| 1778012990 | 27.78° C | 35% | 1012 hPa | 0 mm | - | 74 W/m² | - |
| 1778012687 | 27.22° C | 35% | 1012 hPa | 0 mm | - | 68 W/m² | - |
| 1778012383 | 27.22° C | 33% | 1012.1 hPa | 0 mm | - | 71 W/m² | - |
| 1778012080 | 27.22° C | 34% | 1012.2 hPa | 0 mm | - | 112 W/m² | - |
| 1778011778 | 27.22° C | 35% | 1012.4 hPa | 0 mm | - | 113 W/m² | - |
| 1778011475 | 27.78° C | 34% | 1012.2 hPa | 0 mm | - | 148 W/m² | - |
| 1778011170 | 27.22° C | 34% | 1012.3 hPa | 0 mm | - | 60 W/m² | - |
| 1778010868 | 27.22° C | 35% | 1012.4 hPa | 0 mm | - | 57 W/m² | - |
| 1778010565 | 27.78° C | 34% | 1012.3 hPa | 0 mm | - | 112 W/m² | - |
| 1778010263 | 27.78° C | 34% | 1012.4 hPa | 0 mm | - | 62 W/m² | - |
* Rain latest hour (hover to see other rain measurements)
** Current wind speed in m/s (hover to see current wind gust speed)